Time,B instrument,Bx,By,Bz,sigma B,Ion instrument,Status,Tp_par,Tp_perp,carrot,r_sun,clat,clong,earth_he_angle,n_p,vp_x,vp_y,vp_z,vth_p_par,vth_p_perp
1980-10-17 00:09:14,-1,nan,nan,nan,nan,1,3,nan,nan,1700,0.81103492,-4.4989166,166.04155,90.66655,nan,433.255,25.6743,27.9615,nan,nan
1980-10-17 00:20:02,-1,nan,nan,nan,nan,1,3,nan,nan,1700,0.81097543,-4.499691,165.94418,90.66684,nan,421.749,-27.021,22.1262,nan,nan
1980-10-17 00:30:50,-1,nan,nan,nan,nan,1,3,nan,nan,1700,0.81092137,-4.5003958,165.84286,90.667084,nan,429.909,34.6571,16.5292,nan,nan
1980-10-17 00:41:38,-1,nan,nan,nan,nan,1,3,nan,nan,1700,0.81086189,-4.5011702,165.74548,90.667358,nan,426.475,38.5499,8.03676,nan,nan
1980-10-17 00:52:26,-1,nan,nan,nan,nan,1,3,nan,nan,1700,0.8108024,-4.5019445,165.6481,90.667633,nan,427.541,27.6692,27.6299,nan,nan
1980-10-17 01:03:14,-1,nan,nan,nan,nan,1,3,nan,nan,1700,0.81074291,-4.5027189,165.54683,90.667923,nan,443.764,-23.0558,45.8632,nan,nan
1980-10-17 01:14:02,-1,nan,nan,nan,nan,1,3,nan,nan,1700,0.81068337,-4.5034943,165.44945,90.668198,nan,421.072,19.781,-31.2544,nan,nan
1980-10-17 01:24:50,-1,nan,nan,nan,nan,1,3,nan,nan,1700,0.81062925,-4.504199,165.35205,90.668457,nan,433.705,5.27359,-45.337,nan,nan
1980-10-17 01:35:38,-1,nan,nan,nan,nan,1,3,nan,nan,1700,0.81056976,-4.5049734,165.25076,90.668732,nan,437.696,11.3192,-41.374,nan,nan
1980-10-17 01:46:26,-1,nan,nan,nan,nan,1,3,nan,nan,1700,0.81051022,-4.5057487,165.1534,90.669022,nan,413.47,26.3013,-6.01109,nan,nan
1980-10-17 01:57:14,-1,nan,nan,nan,nan,1,3,nan,nan,1700,0.81045067,-4.5065241,165.05602,90.669296,nan,450.729,11.0473,-61.5052,nan,nan
1980-10-17 02:23:20,-1,nan,nan,nan,nan,1,4,nan,nan,1700,0.81030983,-4.508357,164.81842,90.669983,nan,nan,nan,nan,nan,nan
1980-10-17 02:24:41,1,4.125,-4.925,-3.75,1.03983,1,1,31139.8,39263.7,1700,0.8103044,-4.5084276,164.80283,90.670013,5.17695,399.904,2.71223,18.8266,22.6734,25.4597
1980-10-17 02:26:49,1,6.375,-4.975,1.05,0.501248,1,1,32873.5,89374.2,1700,0.81029356,-4.5085688,164.78334,90.670059,5.9368,403.068,23.2463,14.9256,23.296,38.4117
1980-10-17 02:29:31,-1,nan,nan,nan,nan,1,4,nan,nan,1700,0.81027728,-4.5087805,164.75998,90.670135,nan,nan,nan,nan,nan,nan
1980-10-17 02:30:52,-1,nan,nan,nan,nan,1,4,nan,nan,1700,0.81027186,-4.5088511,164.74829,90.670166,nan,nan,nan,nan,nan,nan
1980-10-17 02:33:34,1,5.975,-4.0125,-0.525,1.42736,1,1,44987.2,90054.9,1700,0.81025565,-4.5090628,164.72493,90.670242,6.15294,398.096,8.91984,16.7207,27.2522,38.5577
1980-10-17 02:34:55,1,6.5,-2.34286,1.18571,0.905989,1,1,31900.7,102632.0,1700,0.81025022,-4.5091333,164.70934,90.670273,7.34114,395.67,-6.14858,5.8169,22.9487,41.1622
1980-10-17 02:36:16,1,4.825,-3.65,6.1,1.27255,1,1,43184.1,95026.9,1700,0.81023937,-4.5092745,164.69766,90.670319,6.66283,399.399,-1.47547,-18.7847,26.7005,39.6078
1980-10-17 02:37:37,1,5.775,-0.225,4.2875,0.563333,1,1,47235.5,82260.1,1700,0.81023395,-4.5093451,164.68597,90.670349,5.74481,410.043,-52.4779,28.1916,27.9249,36.8513
1980-10-17 02:38:56,1,3.94286,-3.95714,6.98571,0.997343,1,1,53564.4,75461.2,1700,0.81022853,-4.5094156,164.67429,90.67038,6.16594,409.831,11.4594,-33.4817,29.7369,35.2955
1980-10-17 02:40:17,1,6.5,-1.41429,2.65714,0.633101,1,1,38389.6,93283.6,1700,0.81021774,-4.5095568,164.66261,90.670425,6.26447,396.888,-2.4906,3.04847,25.1747,39.2428
1980-10-17 02:42:59,1,6.3,-2.9875,3.95,0.472857,1,1,36538.1,41344.3,1700,0.81020689,-4.509697,164.63924,90.670486,5.58158,398.193,-0.656302,-12.1136,24.5602,26.1256
1980-10-17 02:44:22,1,6.175,-2.4625,3.9875,0.433373,1,1,58807.4,96751.4,1700,0.81019604,-4.5098381,164.62366,90.670532,6.26935,396.219,-4.96713,-12.5532,31.1583,39.9656
1980-10-17 02:45:43,1,5.74286,-2.8,4.88571,0.351672,1,1,36437.3,42989.8,1700,0.81019062,-4.5099087,164.61197,90.670563,5.18344,398.92,-2.19424,-17.1054,24.5262,26.6404
1980-10-17 02:47:04,1,5.0625,-2.9125,5.6125,0.980832,1,1,42944.9,88264.9,1700,0.81017977,-4.5100498,164.6003,90.670609,6.12975,401.724,9.99324,-18.4729,26.6265,38.1726
1980-10-17 02:48:25,1,4.8875,-2.3125,5.9875,0.834135,1,1,44772.6,53636.6,1700,0.81017435,-4.5101204,164.58861,90.670639,5.20621,399.283,-4.30371,-20.2087,27.1872,29.757
1980-10-17 02:49:46,1,4.625,-2.6875,6.4,0.495448,1,1,54667.5,86685.2,1700,0.81016892,-4.510191,164.57692,90.67067,6.24187,405.271,-3.54569,-26.7804,30.0416,37.8295
1980-10-17 02:51:07,1,4.9125,-3.475,6.05,0.472196,1,1,47490.6,71821.4,1700,0.81015813,-4.5103321,164.56134,90.670715,5.7331,402.03,-0.00504094,-28.1874,28.0002,34.4338
1980-10-17 02:52:28,1,5.725,-3.1125,4.525,0.612245,1,1,47576.2,94546.4,1700,0.81015271,-4.5104027,164.54965,90.670746,6.37101,396.575,2.06477,-14.3163,28.0254,39.5076
1980-10-17 02:53:49,1,5.7875,-3.0375,3.3,1.80026,1,1,44402.3,79716.7,1700,0.81014729,-4.5104733,164.53795,90.670761,6.33896,397.165,9.32105,3.38922,27.0745,36.2771
1980-10-17 02:55:10,1,5.125,-2.825,5.75,0.32596,1,1,41536.1,95710.1,1700,0.81013644,-4.5106144,164.52629,90.670822,6.3964,401.674,1.81329,-27.4129,26.1861,39.75
1980-10-17 02:56:31,1,4.5,-3.1375,6.3,0.788888,1,1,44896.5,91987.5,1700,0.81013101,-4.510685,164.5146,90.670853,5.9659,401.008,4.65589,-31.723,27.2248,38.9693
1980-10-17 02:57:52,1,5.4,-5.075,-1.2875,0.456036,1,1,35754.8,66273.8,1700,0.81012559,-4.5107555,164.5029,90.670868,5.673,403.713,20.0371,22.0243,24.2955,33.0772
1980-10-17 02:59:13,-1,nan,nan,nan,nan,1,4,nan,nan,1700,0.81011474,-4.5108967,164.48734,90.670929,nan,nan,nan,nan,nan,nan
1980-10-17 03:00:34,1,4.8,-6.825,1.5875,0.869177,1,1,52545.0,65756.2,1700,0.81010938,-4.5109673,164.47565,90.670959,5.78974,411.653,34.8179,9.93139,29.4526,32.9478
1980-10-17 03:01:55,1,3.9,-5.425,-3.4625,0.573776,1,1,42718.8,77830.9,1700,0.81010389,-4.5110369,164.46394,90.670975,5.58809,412.825,30.8195,33.2428,26.5563,35.8454
1980-10-17 03:03:16,1,3.7,-4.225,-4.3,0.504356,1,1,41156.1,71957.7,1700,0.8100931,-4.511178,164.45229,90.671036,5.78057,420.512,16.3722,46.3637,26.066,34.4664
1980-10-17 03:04:37,1,4.3,-0.3,-3.94286,1.04998,1,1,48559.3,93051.5,1700,0.81008768,-4.5112486,164.4406,90.671066,5.92026,414.105,-37.7438,37.1675,28.3135,39.194
1980-10-17 03:05:56,1,4.9375,-1.6125,-3.5875,0.662972,1,1,45370.2,84769.8,1700,0.81008226,-4.5113192,164.42889,90.671082,6.28176,411.532,-9.58484,46.7348,27.368,37.4092
1980-10-17 03:07:17,1,3.6625,-2.1,-4.8625,0.687159,1,1,48528.4,81683.7,1700,0.81007141,-4.5114603,164.41724,90.671143,6.0859,415.547,-9.04833,47.5764,28.3045,36.7219
1980-10-17 03:08:38,1,4.475,-0.9125,-4.0,1.11489,1,1,33391.7,83561.9,1700,0.81006598,-4.5115309,164.40164,90.671173,5.83022,410.235,-12.2904,47.593,23.4789,37.1417
1980-10-17 03:09:59,1,2.84286,-2.51429,-4.51429,1.431,1,1,48699.2,99823.3,1700,0.81006056,-4.5116014,164.38994,90.671188,5.95911,421.402,4.4019,53.3927,28.3543,40.5951
1980-10-17 03:11:22,1,4.3375,-0.8125,-4.2,0.819108,1,1,48135.9,83111.1,1700,0.81004971,-4.5117416,164.37828,90.671249,5.91347,416.261,-19.4996,49.8434,28.1898,37.0414
1980-10-17 03:12:43,1,3.9,-3.45,-4.5,0.438748,1,1,47012.6,86823.5,1700,0.81004429,-4.5118122,164.36659,90.67128,5.84551,416.121,8.60467,48.3134,27.859,37.8596
1980-10-17 03:14:04,1,4.5,-3.8,-3.725,0.460299,1,1,38105.9,78618.1,1700,0.81003344,-4.5119534,164.35492,90.671326,6.13637,414.408,14.2194,45.6033,25.0815,36.0263
1980-10-17 03:15:25,1,4.2375,-4.25,-3.8875,0.872317,1,1,43552.7,83576.0,1700,0.81002802,-4.5120239,164.33932,90.671356,6.12182,414.756,13.4027,46.5938,26.8142,37.1449
1980-10-17 03:16:46,1,4.5875,-4.8625,-3.4125,0.657291,1,1,34398.6,70486.2,1700,0.81002259,-4.5120945,164.32764,90.671387,5.56483,408.988,21.9017,38.5423,23.8302,34.1122
1980-10-17 03:18:07,1,4.12857,-4.02857,-3.88571,0.702764,1,1,42070.2,88796.4,1700,0.81001174,-4.5122347,164.31596,90.671432,6.43952,415.203,12.0664,46.9026,26.3539,38.2874
1980-10-17 03:22:10,1,1.62,-4.3,-5.66,0.907744,1,1,50456.6,80492.1,1700,0.80999005,-4.512517,164.28091,90.671539,5.6348,438.133,15.4855,53.6709,28.8614,36.4531
1980-10-17 03:23:31,1,2.8375,-6.7,-3.5,0.782524,1,1,34333.8,77951.8,1700,0.80998462,-4.5125875,164.26923,90.67157,6.2254,423.386,36.8859,33.5122,23.8078,35.8733
1980-10-17 03:24:52,1,2.0375,-6.1,-3.95,2.41295,1,1,33929.8,63758.9,1700,0.8099792,-4.5126581,164.25363,90.6716,5.84405,445.143,20.5562,53.023,23.6673,32.4435
1980-10-17 03:26:13,1,4.9,-6.925,2.15,0.922971,1,1,33000.8,74042.8,1700,0.80996835,-4.5127983,164.24196,90.671646,6.72318,410.909,37.1091,-3.70498,23.341,34.9623
1980-10-17 03:27:34,1,4.9875,-6.575,2.4625,1.50841,1,1,40206.8,85067.7,1700,0.80996293,-4.5128689,164.23027,90.671677,6.50715,401.043,21.0698,3.40239,25.7637,37.4749
1980-10-17 03:28:55,1,4.8125,-6.625,-0.15,1.49849,1,1,33299.3,71882.8,1700,0.8099575,-4.5129395,164.21858,90.671707,5.64876,407.94,35.387,6.30344,23.4464,34.4485
1980-10-17 03:30:16,1,5.5875,-5.7375,1.2,0.404274,1,1,31857.7,83946.7,1700,0.80994666,-4.5130806,164.20692,90.671768,5.97449,399.541,21.3527,2.36664,22.9332,37.2271
1980-10-17 03:31:37,1,3.3375,-7.5625,4.4375,0.744669,1,1,39483.1,71197.4,1700,0.80994123,-4.5131512,164.19522,90.671783,5.84208,412.223,37.3161,-20.0105,25.5308,34.2839
1980-10-17 03:32:58,1,4.0875,-7.675,2.8,0.524851,1,1,58401.8,66359.3,1700,0.80993581,-4.5132217,164.17963,90.671814,5.95089,413.576,38.1976,-12.5727,31.0507,33.0985
1980-10-17 03:35:40,1,5.3625,-6.05,1.0,0.363791,1,1,35451.4,70491.1,1700,0.80991954,-4.5134325,164.15627,90.67189,5.82115,403.906,25.6951,11.9599,24.1921,34.1134
1980-10-17 03:37:01,1,5.5875,-5.0875,0.3,0.65741,1,1,35846.2,79042.9,1700,0.80990869,-4.5135736,164.14461,90.671951,5.91837,402.534,27.7964,9.21229,24.3265,36.1235
1980-10-17 03:38:22,1,5.04286,-6.77143,1.28571,0.239046,1,1,42166.9,77625.6,1700,0.80990326,-4.5136442,164.13292,90.671982,6.06727,406.103,29.1258,6.71014,26.3842,35.7981
1980-10-17 03:39:43,1,2.6875,-8.9125,2.4125,0.596474,1,1,58788.2,80011.0,1700,0.80989784,-4.5137148,164.12122,90.671997,7.26098,430.694,50.3436,-9.71911,31.1532,36.344
1980-10-17 03:41:04,1,2.55,-8.8625,0.5,0.964284,1,1,73524.0,68351.9,1700,0.80988699,-4.5138559,164.10565,90.672058,6.27789,421.485,42.7553,-1.37763,34.8395,33.5918
1980-10-17 03:42:25,1,2.9375,-8.35,0.225,0.423342,1,1,44793.2,67195.7,1700,0.80988157,-4.5139265,164.09396,90.672089,6.30203,424.328,43.7948,13.3657,27.1934,33.3065
1980-10-17 03:43:46,1,2.9125,-8.5625,2.4875,0.753015,1,1,68217.7,67793.0,1700,0.80987614,-4.5139971,164.08226,90.672104,6.31312,419.727,41.2523,-10.5699,33.5588,33.4542
1980-10-17 03:45:07,1,3.375,-8.2375,0.925,1.07638,1,1,55614.0,76057.6,1700,0.8098653,-4.5141373,164.0706,90.672165,6.97075,418.762,39.3034,7.88026,30.3005,35.4347
1980-10-17 03:46:28,1,2.4875,-7.375,-2.85,0.29235,1,1,66275.6,55669.6,1700,0.80985987,-4.5142078,164.05891,90.672195,5.78233,431.275,35.4838,33.9049,33.0776,30.3157
1980-10-17 03:47:49,1,2.4,-7.9875,-2.05,0.658478,1,1,29728.4,67307.3,1700,0.80985445,-4.5142784,164.04723,90.672226,6.58724,429.665,40.6463,25.0871,22.1536,33.3341
1980-10-17 03:49:10,1,0.8375,-3.6,-5.875,1.00335,1,1,68532.0,68962.5,1700,0.8098436,-4.5144196,164.03165,90.672272,6.28661,438.806,15.1477,45.4844,33.636,33.7415
1980-10-17 03:50:31,1,2.5,-4.45,-4.8,0.492443,1,1,58899.6,75147.3,1700,0.80983818,-4.5144901,164.01996,90.672302,6.39767,427.721,18.7085,43.254,31.1827,35.2221
1980-10-17 03:51:52,1,2.8,-6.725,6.3,0.985837,1,1,60705.7,77773.8,1700,0.80983275,-4.5145607,164.00827,90.672333,6.01119,428.347,32.6526,-19.826,31.6572,35.8323
1980-10-17 03:53:13,1,-1.26667,-5.58889,8.54444,0.488889,1,1,66513.2,89707.9,1700,0.8098219,-4.5147009,163.9966,90.672379,6.57374,452.588,14.9299,-36.5957,33.1369,38.4834
1980-10-17 03:55:55,1,-2.575,-5.3875,8.775,0.346185,1,1,64441.7,108907.0,1700,0.80981106,-4.514842,163.97322,90.67244,6.83566,455.949,8.93947,-39.5309,32.6168,42.402
1980-10-17 03:57:16,1,-1.56667,-5.62222,8.64444,0.518307,1,1,74713.3,80689.1,1700,0.80980021,-4.5149832,163.95764,90.672485,6.84674,454.242,13.8357,-36.2538,35.1202,36.4977
1980-10-17 03:58:37,1,-1.6625,-5.4,8.9625,0.479257,1,1,61317.3,96452.1,1700,0.80979478,-4.5150537,163.94595,90.672516,6.55454,451.012,16.5982,-37.2943,31.8163,39.9038
1980-10-17 03:59:58,1,-2.2,-5.33333,8.42222,1.01738,1,1,75982.8,83602.0,1700,0.80978936,-4.5151243,163.93427,90.672546,6.80747,455.532,15.736,-35.9732,35.4173,37.1506
1980-10-17 04:01:19,1,-2.825,-5.9,7.7125,0.32476,1,1,103365.0,103136.0,1700,0.80977851,-4.5152645,163.92259,90.672592,6.81597,459.147,18.1403,-35.107,41.309,41.2632
1980-10-17 04:02:40,1,-1.65,-6.3625,7.425,0.607634,1,1,85956.5,75636.3,1700,0.80977309,-4.5153351,163.9109,90.672623,6.17274,453.107,23.5741,-32.7183,37.6701,35.3365
1980-10-17 04:04:01,1,-2.46667,-6.32222,7.91111,0.365824,1,1,59092.0,99936.0,1700,0.80976224,-4.5154762,163.89925,90.672684,6.87906,456.434,18.929,-35.2825,31.2336,40.618
1980-10-17 04:05:22,1,-2.54444,-6.96667,7.6,0.343547,1,1,76976.6,65556.5,1700,0.80975682,-4.5155468,163.88365,90.672714,6.38697,456.676,23.4501,-32.1137,35.6482,32.8977
1980-10-17 04:06:43,1,-1.83333,-6.71111,7.05556,0.688889,1,1,77934.4,116134.0,1700,0.80975139,-4.5156174,163.87195,90.672729,6.74207,468.639,27.3288,-28.5863,35.8693,43.7862
1980-10-17 04:08:04,1,-1.38889,-6.96667,7.44444,0.778254,1,1,79741.8,80955.4,1700,0.80974054,-4.5157585,163.86029,90.672791,6.6355,446.298,20.047,-31.8778,36.2828,36.5579
1980-10-17 04:09:25,1,-0.85,-7.125,7.25,0.713705,1,1,60371.9,84226.3,1700,0.80973512,-4.5158291,163.8486,90.672821,6.34135,445.984,27.1397,-29.6913,31.5701,37.2891
1980-10-17 05:21:50,-1,nan,nan,nan,nan,1,3,nan,nan,1700,0.80934417,-4.5209074,163.18652,90.674805,nan,436.517,10.6215,-39.2669,nan,nan
1980-10-17 05:23:11,1,-0.3875,-5.95,8.6,0.388708,1,1,72084.1,92223.9,1700,0.80933332,-4.5210476,163.17485,90.67485,6.98528,441.914,19.7786,-31.0484,34.4967,39.0193
1980-10-17 05:24:32,1,0.375,-5.9625,8.4,0.318934,1,1,60552.0,97217.3,1700,0.8093279,-4.5211182,163.16316,90.674881,6.75819,434.2,18.3337,-28.5037,31.6171,40.0617
1980-10-17 05:25:53,1,0.2625,-5.7125,8.7125,0.584834,1,1,59582.0,96054.5,1700,0.80932242,-4.5211887,163.15147,90.674911,7.07586,433.881,13.9818,-30.5364,31.3628,39.8214
1980-10-17 05:27:16,1,0.6125,-6.5375,8.05,0.641044,1,1,55802.6,111956.0,1700,0.80931157,-4.5213299,163.13591,90.674973,7.3172,436.428,24.2765,-24.5721,30.3518,42.9913
1980-10-17 05:28:37,1,-1.04444,-3.92222,9.26667,1.20267,1,1,59293.2,106402.0,1700,0.80930614,-4.5214005,163.12421,90.674988,6.7277,433.986,2.41719,-33.5714,31.2868,41.9115
1980-10-17 05:29:58,1,-0.0125,-5.3,8.8125,0.507137,1,1,73809.6,105102.0,1700,0.80930072,-4.521471,163.11252,90.675018,6.85583,433.524,14.008,-33.9179,34.9072,41.6546
1980-10-17 05:31:19,1,2.7,-6.4,6.9625,0.421122,1,1,62947.3,97532.6,1700,0.80928981,-4.5216122,163.10086,90.675079,6.75831,422.222,21.814,-28.2853,32.2364,40.1266
1980-10-17 05:32:40,1,3.825,-6.0625,5.95,0.816528,1,1,63673.7,113643.0,1700,0.80928439,-4.5216827,163.08917,90.67511,7.16895,416.279,31.5184,-23.7693,32.4219,43.3142
1980-10-17 05:34:01,1,4.2625,-5.125,6.25,0.405239,1,1,52627.9,92450.6,1700,0.80927354,-4.5218239,163.0775,90.675156,6.14332,408.162,20.3102,-25.2227,29.4758,39.0672
1980-10-17 05:35:22,1,2.475,-6.3375,7.4,0.462838,1,1,58406.0,93812.9,1700,0.80926812,-4.5218945,163.0619,90.675186,6.08417,424.356,28.5381,-32.572,31.0518,39.354
1980-10-17 05:36:43,1,1.1125,-6.5,7.9625,0.436964,1,1,56108.6,97828.5,1700,0.80926263,-4.521965,163.05022,90.675217,6.39705,430.608,26.0688,-37.0616,30.4349,40.1875
1980-10-17 05:38:04,1,0.675,-6.225,8.2,0.684653,1,1,75337.4,94404.0,1700,0.80925179,-4.5221062,163.03856,90.675278,6.1872,429.455,25.9208,-37.5125,35.2666,39.4778
1980-10-17 05:39:25,1,2.2625,-6.025,7.7375,0.609559,1,1,62250.6,101707.0,1700,0.80924636,-4.5221767,163.02686,90.675293,6.844,415.209,18.7398,-32.3773,32.0575,40.9763
1980-10-17 05:40:46,1,1.0375,-7.25,7.375,0.408312,1,1,68796.8,94174.4,1700,0.80924094,-4.5222473,163.01517,90.675323,6.38628,429.008,34.6456,-28.5065,33.701,39.4298
1980-10-17 05:42:07,1,2.3125,-6.4125,7.25,1.09187,1,1,76528.1,107988.0,1700,0.80923009,-4.5223875,163.00351,90.675385,7.91745,406.836,13.8038,-23.913,35.5442,42.2226
1980-10-17 05:43:28,1,1.5625,-7.075,7.125,1.18368,1,1,65111.5,95250.1,1700,0.80922461,-4.5224581,162.98792,90.675415,6.61727,427.137,39.8343,-23.3955,32.7859,39.6543
1980-10-17 05:44:49,1,-3.225,-2.1375,9.7,0.631838,1,1,101576.0,126129.0,1700,0.80921918,-4.5225286,162.97621,90.67543,6.95646,461.45,-9.08361,-44.5162,40.9499,45.6316
1980-10-17 05:46:10,1,-1.9625,-2.925,9.9,0.679499,1,1,114433.0,103872.0,1700,0.80920833,-4.5226698,162.96455,90.675491,7.3533,447.622,-8.52219,-50.4105,43.4644,41.4102
1980-10-17 05:47:31,1,-2.18889,-3.95556,9.63333,0.491156,1,1,95964.3,122703.0,1700,0.80920291,-4.5227404,162.95287,90.675522,6.98486,451.083,7.63334,-48.4604,39.8027,45.0076
1980-10-17 05:48:52,1,-0.122222,-5.07778,9.24444,0.747836,1,1,81954.4,122283.0,1700,0.80919743,-4.5228109,162.94118,90.675552,7.07399,444.683,16.5691,-43.5217,36.7827,44.9305
1980-10-17 05:50:13,1,-4.28889,-4.15556,8.62222,2.00462,1,1,108747.0,123766.0,1700,0.80918658,-4.5229521,162.9295,90.675598,7.58823,461.345,11.6663,-44.1676,42.3708,45.2021
1980-10-17 05:51:34,1,-1.02222,-4.36667,8.98889,1.57213,1,1,139936.0,114159.0,1700,0.80918115,-4.5230227,162.91391,90.675629,7.00451,459.224,6.59993,-44.5982,48.0643,43.4122
1980-10-17 05:52:55,1,1.8125,-4.325,8.5125,1.39071,1,1,63447.6,118355.0,1700,0.80917573,-4.5230932,162.90222,90.675659,7.41381,417.87,14.4791,-37.987,32.3642,44.203
1980-10-17 05:54:16,1,1.45,-5.825,7.6625,3.10592,1,1,68824.9,100627.0,1700,0.80916488,-4.5232344,162.89056,90.67572,6.99559,417.418,8.45441,-36.0074,33.7078,40.7581
1980-10-17 05:55:37,-1,nan,nan,nan,nan,1,4,nan,nan,1700,0.8091594,-4.5233049,162.87886,90.675735,nan,nan,nan,nan,nan,nan
1980-10-17 05:56:58,1,1.9375,-7.8,6.6875,0.602858,1,1,64821.6,113202.0,1700,0.80915397,-4.5233755,162.86717,90.675766,7.79992,419.193,35.5597,-21.6786,32.7128,43.2299
1980-10-17 05:58:19,1,1.2375,-8.625,6.0625,0.595032,1,1,76529.7,102339.0,1700,0.80914313,-4.5235167,162.85551,90.675827,7.18967,427.786,36.7458,-21.9811,35.5445,41.1034
1980-10-17 05:59:40,1,0.5,-9.35,4.525,1.22755,1,1,73384.9,106948.0,1700,0.8091377,-4.5235872,162.83992,90.675858,7.11775,432.698,48.7153,-6.63646,34.8066,42.0188
1980-10-17 06:01:01,1,-0.911111,-9.27778,5.57778,0.549747,1,1,79938.8,110162.0,1700,0.80912679,-4.5237274,162.82825,90.675903,7.65486,436.16,41.5477,-21.9881,36.3276,42.6456
1980-10-17 06:02:22,1,1.975,-8.8625,4.9,0.653237,1,1,64921.8,120503.0,1700,0.80912137,-4.523798,162.81656,90.675934,8.00937,423.32,39.1157,-16.449,32.7381,44.6022
1980-10-17 06:03:43,1,4.85,-7.2875,0.5375,0.500937,1,1,59502.3,102861.0,1700,0.80911595,-4.5238686,162.80487,90.675964,7.15273,405.136,30.9851,13.5288,31.3419,41.2082
1980-10-17 06:05:04,1,3.77143,-8.37143,3.04286,0.868966,1,1,52242.8,96373.2,1700,0.80910504,-4.5240097,162.79321,90.676025,6.71168,416.879,38.562,-7.17346,29.3678,39.8874
1980-10-17 06:06:25,1,3.575,-8.6875,1.9,0.824905,1,1,78381.8,112347.0,1700,0.80909961,-4.5240803,162.78152,90.676056,7.87048,413.113,37.9035,9.23562,35.9721,43.0664
1980-10-17 06:07:46,1,4.25714,-7.97143,1.78571,0.316228,1,1,48858.6,100456.0,1700,0.80909419,-4.5241508,162.76593,90.676086,6.82022,411.498,38.9586,4.29052,28.4007,40.7236
1980-10-17 06:09:07,1,3.78889,-8.1,3.15556,0.862239,1,1,73377.2,108866.0,1700,0.80908328,-4.524292,162.75426,90.676132,7.07369,406.492,27.4079,-13.8362,34.8047,42.3939
1980-10-17 06:14:30,1,3.95714,-7.88571,-1.42857,0.29761,1,1,64304.9,114416.0,1700,0.80906695,-4.5245037,162.70747,90.676224,7.79258,415.729,27.7449,30.8046,32.5822,43.4611
1980-10-17 06:14:31,1,3.96667,-7.86667,-1.46667,0.3,1,1,68063.8,98909.4,1700,0.8090561,-4.5246449,162.70753,90.676285,7.11658,411.691,22.2767,25.1697,33.5209,40.4089
1980-10-17 06:15:41,1,3.85714,-7.91429,-2.05714,0.374711,1,1,50842.4,91125.5,1700,0.80905068,-4.5247154,162.69585,90.676315,7.03074,420.846,26.5256,28.6325,28.9715,38.7863
1980-10-17 06:15:52,1,3.91429,-7.88571,-2.05714,0.406076,1,1,48386.7,113762.0,1700,0.80905062,-4.5247154,162.69194,90.676315,7.68919,429.328,35.4498,24.9014,28.2632,43.3367
1980-10-17 06:17:13,1,2.38571,-8.52857,-2.55714,0.667618,1,1,66240.1,91130.7,1700,0.80903977,-4.5248566,162.68027,90.676361,7.41351,421.723,30.0448,23.1086,33.0688,38.7874
1980-10-17 06:18:34,1,3.98889,-7.11111,-2.62222,0.553106,1,1,59644.4,110859.0,1700,0.80903435,-4.5249271,162.66858,90.676392,7.49953,420.253,25.4531,32.9077,31.3793,42.7803
1980-10-17 06:19:55,1,2.9625,-8.4875,-1.75,0.834229,1,1,63134.7,97646.0,1700,0.80902886,-4.5249977,162.65689,90.676422,7.35522,429.1,29.2618,32.6125,32.2844,40.15
1980-10-17 06:21:16,1,3.7125,-7.9625,-1.95,0.410411,1,1,51265.5,106634.0,1700,0.80901802,-4.5251379,162.64523,90.676483,7.27392,423.285,34.4702,31.4723,29.0918,41.9572
1980-10-17 06:22:37,1,3.175,-7.95,-2.85,0.286138,1,1,55814.0,103944.0,1700,0.80901259,-4.5252085,162.63354,90.676514,7.18288,422.689,26.2172,32.0853,30.3549,41.4245
1980-10-17 06:23:58,1,3.85,-7.1625,-3.0,0.912329,1,1,61429.4,120112.0,1700,0.80900711,-4.525279,162.61794,90.676529,7.86004,424.356,32.2473,36.4835,31.8453,44.5299
1980-10-17 06:25:19,1,4.7,-4.35,-4.35,0.44441,1,1,50003.9,103629.0,1700,0.80899626,-4.5254202,162.60628,90.67659,6.6023,416.594,10.5842,47.4926,28.7316,41.3617
1980-10-17 06:26:40,1,4.7375,-3.65,-4.7125,0.344147,1,1,55036.4,124514.0,1700,0.80899084,-4.5254908,162.59459,90.67662,7.0649,416.501,8.63702,48.3832,30.1428,45.3384
1980-10-17 06:28:01,1,5.4375,-3.7625,-3.725,0.623749,1,1,57889.9,109374.0,1700,0.80897993,-4.5256319,162.58293,90.676682,6.75388,405.912,5.47941,39.0326,30.9143,42.4928
1980-10-17 06:29:22,1,5.18571,-4.02857,-3.54286,0.444008,1,1,59680.4,113457.0,1700,0.8089745,-4.5257025,162.57124,90.676712,7.20163,412.627,11.9474,44.2264,31.3887,43.2786
1980-10-17 06:30:43,1,3.6,-2.7125,-5.6,0.351559,1,1,61120.8,117657.0,1700,0.80896902,-4.525773,162.55956,90.676743,7.4361,423.14,5.06093,55.4175,31.7653,44.0724
1980-10-17 06:32:04,1,3.55714,-3.0,-5.48571,0.415024,1,1,63881.3,122388.0,1700,0.80895817,-4.5259142,162.54398,90.676788,7.54886,420.614,6.44279,51.8389,32.4747,44.9498
1980-10-17 06:33:25,1,3.7375,-1.975,-5.4625,0.558178,1,1,63678.2,116194.0,1700,0.80895275,-4.5259848,162.53229,90.676819,7.0867,422.147,-0.952184,55.7901,32.423,43.7976
1980-10-17 06:34:46,1,3.7625,-3.6125,-5.2125,0.661083,1,1,63216.9,118635.0,1700,0.80894727,-4.5260553,162.5206,90.676849,7.63797,416.556,8.71949,50.3002,32.3053,44.2551
1980-10-17 06:36:07,1,4.4125,-4.2125,-4.6,0.489579,1,1,64586.0,116484.0,1700,0.80893642,-4.5261965,162.50894,90.67691,7.71746,413.973,8.61501,48.7299,32.6533,43.8521
1980-10-17 06:37:28,1,3.3875,-2.825,-5.825,0.460808,1,1,63706.2,121090.0,1700,0.80893099,-4.5262671,162.49725,90.676941,7.17748,421.178,0.97965,55.8651,32.4301,44.7108
1980-10-17 06:38:49,1,3.5125,-4.475,-4.9,1.48255,1,1,62494.4,102345.0,1700,0.80892551,-4.5263376,162.48555,90.676956,7.04568,419.056,23.8177,44.4689,32.1202,41.1047
1980-10-17 06:40:10,1,3.475,-0.975,-5.175,1.93665,1,1,110457.0,94921.5,1700,0.80891466,-4.5264788,162.46999,90.677017,6.55902,425.713,-5.08676,55.819,42.7026,39.5859
1980-10-17 06:41:31,1,6.2125,0.35,-2.0,0.772071,1,1,60000.3,112512.0,1700,0.80890924,-4.5265484,162.4583,90.677048,6.88839,403.216,-21.1485,38.2908,31.4727,43.098
1980-10-17 06:42:52,1,5.8625,-0.25,-2.6,0.517053,1,1,61407.3,102568.0,1700,0.80890375,-4.526619,162.44661,90.677078,6.83685,404.836,-15.0995,41.7844,31.8396,41.1494
1980-10-17 06:44:13,1,5.75,-1.15,-3.1,0.657647,1,1,53427.7,105974.0,1700,0.80889291,-4.5267601,162.43495,90.677139,6.75091,405.232,-11.4065,44.6874,29.699,41.8271
1980-10-17 06:45:34,1,5.8625,-1.325,-3.0,0.434993,1,1,47095.9,103220.0,1700,0.80888748,-4.5268307,162.42326,90.67717,6.84316,399.746,-9.34808,38.3416,27.8836,41.28
1980-10-17 06:46:55,1,6.5125,-1.3375,-2.0125,0.497022,1,1,52945.1,101466.0,1700,0.808882,-4.5269012,162.41156,90.677185,6.54449,400.463,1.24104,37.9714,29.5645,40.9277
1980-10-17 06:48:16,1,6.075,-1.6625,-2.35,0.352447,1,1,46727.9,109769.0,1700,0.80887115,-4.5270424,162.396,90.677246,7.03357,398.109,-5.65891,34.4072,27.7745,42.5695